User: anonymous   Login
Location: Unspecified
(0.0000°N, 0.0000°E)
Time: 23:17:32
(UTC+00:00)
Language:

STARLINK-30099 - Orbit

View from above orbital plane
View from above orbital plane
View from above satellite
View from above satellite

Ground track
Ground track

The orbit is defined by the following mean orbital elements,

1 56304U          26145.33053044 +.00000000 +00000-0 +17881-3 0 00009
2 56304  43.0002 135.7964 0001182 275.6182  84.4535 15.27591006    02
Epoch (UTC): 25 May 2026 07:55:57
Eccentricity: 0.0001182
inclination: 43.0002°
perigee height: 482 km
apogee height: 484 km
right ascension of ascending node: 135.7964°
argument of perigee: 275.6182°
revolutions per day: 15.27591006
mean anomaly at epoch: 84.4535°

The dashed part of the orbit path shows where the satellite is in the earth's shadow,  

DLR